Location: Guilderland
(42.7045°N, 73.9115°W)
Time: 05:17:44
(UTC+00:00)

Shenzhou-11 Module - Pass Details

Date: 24 January 2020
Orbit: 297 x 312 km, 42.8° (Epoch: 19 February)

Event Time Altitude Azimuth Distance (km) Brightness Sun altitude
Rises 23:07:33 0° 259° (WSW) 2,040 7.8 -12.8°
Reaches altitude 10° 23:09:33 10° 258° (WSW) 1,207 6.1 -13.2°
Maximum altitude 23:12:14 80° 172° (S) 320 1.6 -13.7°
Enters shadow 23:13:12 35° 89° (E) 522 2.2 -13.8°
